Weather History for Missoula, MT

Change the Weather History Date:

Friday, March 23, 2012

  Actual Average Record
Temperature  
Mean Temperature 40 °F 41 °F  
Max Temperature 48 °F 53 °F 71 °F (1939)
Min Temperature 31 °F 30 °F -1 °F (1964)
Degree Days  
Heating Degree Days 25 24  
Month to date heating degree days 625 629  
Since 1 July heating degree days 5749 5998  
Cooling Degree Days 0 0  
Month to date cooling degree days 0 0  
Year to date cooling degree days 0 0  
Moisture  
Dew Point 31 °F    
Average Humidity 71    
Maximum Humidity 92    
Minimum Humidity 50    
Precipitation  
Precipitation 0.08 in 0.04 in 0.29 in (1998)
Month to date precipitation 0.89 0.71  
Year to date precipitation 3.34 2.26  
Snow  
Snow 0.00 in - - ()
Month to date snowfall 2.2  
Year to date snowfall 28.9  
Since 1 July snowfall 39.8  
Snow Depth 0.00 in    
Sea Level Pressure  
Sea Level Pressure 29.98 in    
Wind  
Wind Speed 4 mph (NNW)    
Max Wind Speed 23 mph    
Max Gust Speed 28 mph    
Visibility 10 miles    
Events Rain    
T = Trace of Precipitation, MM = Missing Value Source: NWS Daily Summary

Daily Weather History Graph

Daily Weather History Graph

Search for Another Location

Airport:

Trip Planner

Search our weather history database for the weather conditions in past years. The results will help you decide how hot, cold, wet, or windy it might be!

Date:

Astronomy

Mar. 23, 2012 Rise Set
Actual Time 7:32 AM MDT 7:54 PM MDT
Civil Twilight 7:01 AM MDT 8:24 PM MDT
Nautical Twilight 6:26 AM MDT 9:00 PM MDT
Astronomical Twilight 5:48 AM MDT 9:37 PM MDT
Moon 7:35 AM MDT (3/23) 9:29 PM MDT (3/23)
Length of Visible Light 13h 22m
Length of Day
12h 21m
New Moon, 1% of the Moon is Illuminated
Mar 23
New Moon
Mar 30
First Quarter
Apr 6
Full
Apr 13
Last Quarter
Apr 21
New

Hourly Weather History & Observations

Time (MDT) Temp. Windchill Dew Point Humidity Pressure Visibility Wind Dir Wind Speed Gust Speed Precip Events Conditions
12:53 AM 33.1 °F - 26.1 °F 75% 29.87 in 10.0 mi Calm Calm - N/A   Clear
1:53 AM 34.0 °F 29.8 °F 27.0 °F 75% 29.88 in 10.0 mi NNE 4.6 mph - N/A   Mostly Cloudy
2:53 AM 32.0 °F 25.6 °F 28.0 °F 85% 29.90 in 10.0 mi NW 6.9 mph - N/A   Mostly Cloudy
3:53 AM 37.0 °F 31.0 °F 27.0 °F 67% 29.88 in 10.0 mi NNW 8.1 mph - N/A   Overcast
4:53 AM 33.1 °F - 28.0 °F 82% 29.90 in 10.0 mi Calm Calm - N/A   Mostly Cloudy
5:53 AM 35.1 °F 27.9 °F 26.1 °F 70% 29.89 in 10.0 mi NW 9.2 mph - N/A   Overcast
6:53 AM 36.0 °F 29.6 °F 27.0 °F 70% 29.91 in 10.0 mi NW 8.1 mph - N/A   Overcast
7:53 AM 35.1 °F 30.1 °F 27.0 °F 72% 29.93 in 10.0 mi North 5.8 mph - N/A   Mostly Cloudy
8:53 AM 35.1 °F 31.0 °F 28.9 °F 78% 29.93 in 10.0 mi ENE 4.6 mph - N/A   Clear
9:53 AM 36.0 °F - 28.9 °F 76% 29.95 in 10.0 mi Calm Calm - N/A   Clear
10:53 AM 37.0 °F - 28.9 °F 73% 29.95 in 10.0 mi Calm Calm - N/A   Partly Cloudy
11:53 AM 39.9 °F 37.8 °F 30.9 °F 70% 29.96 in 10.0 mi Variable 3.5 mph - N/A   Mostly Cloudy
12:53 PM 41.0 °F - 30.0 °F 65% 29.94 in 10.0 mi Calm Calm - N/A   Scattered Clouds
1:36 PM 42.8 °F - 30.2 °F 61% 29.89 in 10.0 mi Calm Calm - 0.00 in Rain Light Rain
1:53 PM 43.0 °F 41.3 °F 30.9 °F 62% 29.94 in 10.0 mi NNE 3.5 mph - 0.00 in   Overcast
2:53 PM 46.0 °F - 30.9 °F 56% 29.92 in 10.0 mi Calm Calm - N/A   Partly Cloudy
3:53 PM 48.0 °F - 30.9 °F 52% 29.91 in 10.0 mi Calm Calm - N/A   Mostly Cloudy
4:36 PM 44.6 °F 37.4 °F 33.8 °F 66% 29.93 in 8.0 mi NNW 16.1 mph 24.2 mph 0.00 in Rain Light Rain
4:48 PM 41.0 °F 33.5 °F 35.6 °F 81% 29.94 in 6.0 mi NNW 13.8 mph 18.4 mph 0.01 in Rain Rain
4:53 PM 41.0 °F 34.3 °F 36.0 °F 82% 30.00 in 6.0 mi NNW 11.5 mph - 0.02 in Rain Light Rain
5:24 PM 42.8 °F 41.1 °F 35.6 °F 76% 29.94 in 10.0 mi North 3.5 mph - 0.04 in   Overcast
5:53 PM 43.0 °F 41.3 °F 35.1 °F 74% 30.01 in 10.0 mi WSW 3.5 mph - 0.04 in   Mostly Cloudy
6:53 PM 43.0 °F 39.5 °F 36.0 °F 76% 30.02 in 10.0 mi NW 5.8 mph - N/A   Overcast
7:41 PM 41.0 °F 37.1 °F 35.6 °F 81% 30.00 in 10.0 mi NNW 5.8 mph - 0.00 in Rain Light Rain
7:53 PM 41.0 °F 37.1 °F 36.0 °F 82% 30.06 in 10.0 mi North 5.8 mph - 0.00 in   Overcast
8:53 PM 39.9 °F 36.7 °F 34.0 °F 79% 30.09 in 10.0 mi NNW 4.6 mph - 0.00 in   Overcast
9:13 PM 39.2 °F 28.7 °F 33.8 °F 81% 30.09 in 7.0 mi WNW 23.0 mph 27.6 mph 0.00 in Rain Rain
9:23 PM 37.4 °F 32.1 °F 33.8 °F 87% 30.09 in 10.0 mi NW 6.9 mph - 0.02 in Rain Light Rain
9:32 PM 37.4 °F - 33.8 °F 87% 30.09 in 10.0 mi Calm Calm - 0.02 in Rain Light Rain
9:53 PM 37.9 °F 32.7 °F 32.0 °F 79% 30.16 in 10.0 mi ENE 6.9 mph - 0.02 in   Overcast
10:53 PM 36.0 °F 31.1 °F 33.1 °F 89% 30.17 in 10.0 mi South 5.8 mph - N/A   Overcast
11:53 PM 36.0 °F - 33.1 °F 89% 30.19 in 10.0 mi Calm Calm - N/A   Overcast